カタログに戻る

COSMOS 1275 DEB

運用中PO
NORAD 13802·DEBRIS·🇷🇺 Russia

打ち上げ Jun 4, 1981 から Plesetsk Cosmodrome

Loading…

次のパス (今後24時間)

TLE

最新Source: Space-Track

元期: Sep 13, 2026, 14:25 UTC

1 13802U 81053GW  26256.60096506  .00000510  00000-0  47214-3 0  9991
2 13802  82.8036  13.9932 0059054 334.5048  38.4863 13.79923422237624

AllMySatでCOSMOS 1275 DEBをリアルタイム追跡

Download on the App Store